www.pogodaiklimat.ru

Погода и климат >> Архив погоды >> Индонезия >> Сабу


ПОГОДА в Сабу

  • Прогноз погоды в Сабу
  • Монитор погоды в Сабу

АРХИВ ПОГОДЫ в Сабу

Время (UTC), дата Ветер
(напр.,м/с)
 
Видим.   Явления Облачность Т
(С)
Тd
(С)
f
(%)
Тe
(С)
Тes
(С)
Комфортность P
(гПа)
Po
(гПа)
Тmin
(С)
Tmax
(С)
R
(мм)
R24
(мм)
S
(см)
09 18.06 ЮВ 3 12 км 4/4 450 м
[Cu hum Ci fib]
+28.2 +22.3 70 +37 +37 очень
душно
1011.9 1009.7
12 18.06 ЮВ 2 6000 м 1/1 450 м
[Cu hum Ci fib]
+25.4 +22.3 83 +33 +33 очень
душно
1013.4 1011.2 +31.2
15 18.06 В 5 6000 м 1/1 450 м
[Cu hum Ci fib]
+25.6 +21.6 79 +33 +33 очень
душно
1013.6 1011.4
18 18.06 В 4 6000 м 1/1 450 м
[Cu hum Ci fib]
+25.8 +21.3 76 +33 +33 очень
душно
1013.4 1011.2
00 19.06 ЮВ 4 14 км 3/3 450 м
[Cu hum Ci fib]
+27.5 +22.6 75 +36 +38 очень
душно
1014.2 1012.0 +24.4
03 19.06 В 8 14 км 3/3 450 м
[Cu hum Ci fib]
+29.8 +21.4 61 +38 +40 очень
душно
1013.4 1011.2
06 19.06 В 4 14 км 1/1 450 м
[Cu hum Ci fib]
+30.4 +19.1 51 +36 +43 очень
душно
1011.2 1009.0
09 19.06 В 4 14 км 1/1 450 м
[Cu hum Ci fib]
+28.4 +20.3 62 +35 +35 очень
душно
1011.2 1009.0
12 19.06 В 3 6000 м 1/1 450 м
[Cu hum Ci fib]
+25.9 +21.5 77 +33 +33 очень
душно
1012.7 1010.5 +31.2
15 19.06 В 4 6000 м 1/1 450 м
[Cu hum Ci fib]
+25.6 +21.6 79 +33 +33 очень
душно
1013.3 1011.1
18 19.06 ЮВ 3 6000 м 1/1 450 м
[Cu hum Ci fib]
+25.0 +21.0 78 +31 +31 очень
душно
1013.7 1011.5
00 20.06 В 6 14 км 3/3 450 м
[Cu hum Ci fib]
+27.2 +20.9 68 +34 +35 очень
душно
1015.1 1012.9 +24.6
03 20.06 ЮВ 5 14 км 3/3 450 м
[Cu hum Ci fib]
+29.0 +19.0 55 +34 +40 очень
душно
1014.2 1012.0
06 20.06 В 5 14 км 1/1 450 м
[Cu hum Ci fib]
+29.7 +19.5 54 +35 +40 очень
душно
1012.3 1010.1
09 20.06 В 4 14 км 3/3 450 м
[Cu hum Ci fib]
+28.1 +19.3 59 +34 +34 очень
душно
1012.5 1010.3
12 20.06 ЮВ 3 6000 м 3/3 450 м
[Cu hum Ci fib]
+25.6 +18.0 63 +30 +30 душно 1013.6 1011.4 +30.5
15 20.06 В 3 6000 м 1/1 450 м
[Cu hum Ci fib]
+25.4 +19.9 72 +31 +31 очень
душно
1013.7 1011.5
18 20.06 В 5 6000 м 1/1 450 м
[Cu hum Ci fib]
+25.0 +20.1 74 +31 +31 очень
душно
1013.1 1010.9
00 21.06 СВ 6 12 км 6/6 420 м
[Cu hum Ci fib]
+26.4 +21.0 72 +33 +34 очень
душно
1014.0 1011.8 +24.8
03 21.06 В 2 12 км 6/6 420 м
[Cu hum Ci fib]
+28.5 +21.2 65 +36 +42 очень
душно
1012.9 1010.3
06 21.06 В 4 14 км 4/4 420 м
[Cu hum Ci fib]
+30.0 +20.3 56 +37 +41 очень
душно
1010.4 1008.2
09 21.06 В 4 14 км 1/1 420 м
[Cu hum Ci fib]
+28.0 +21.1 66 +35 +36 очень
душно
1010.6 1008.4
12 21.06 В 4 6000 м 1/1 450 м
[Cu hum Ci fib]
+25.8 +21.3 76 +33 +33 очень
душно
1012.2 1010.0
15 21.06 В 2 6000 м 1/1 450 м
[Cu hum Ci fib]
+25.2 +20.9 77 +32 +32 очень
душно
1013.3 1011.1
18 21.06 В 4 6000 м 1/1 450 м
[Cu hum Ci fib]
+25.2 +20.5 75 +31 +31 очень
душно
1012.6 1010.4
00 22.06 В 6 12 км 4/4 450 м
[Cu hum Ci fib]
+26.8 +22.0 75 +35 +36 очень
душно
1013.9 1011.7 +25.0
03 22.06 В 6 14 км 5/5 450 м
[Cu hum Ci fib]
+29.0 +21.7 65 +37 +40 очень
душно
1012.9 1010.7
06 22.06 В 6 14 км 4/4 450 м
[Cu hum Ci fib]
+30.0 +20.5 57 +37 +40 очень
душно
1010.6 1008.4
09 22.06 ЮВ 3 14 км 1/1 450 м
[Cu hum Ci fib]
+27.7 +21.2 68 +35 +35 очень
душно
1010.8 1008.6
12 22.06 В 4 6000 м 1/1 450 м
[Cu hum Ci fib]
+25.8 +20.5 73 +32 +32 очень
душно
1012.2 1010.0 +30.6
15 22.06 В 3 6000 м 1/1 450 м
[Cu hum Ci fib]
+25.3 +20.9 77 +32 +32 очень
душно
1012.3 1010.1
18 22.06 В 4 6000 м 1/1 450 м
[Cu hum Ci fib]
+25.1 +21.1 78 +32 +32 очень
душно
1012.1 1009.9
00 23.06 В 4 12 км 1/1 450 м
[Cu hum Ci fib]
+26.7 +20.9 71 +34 +36 очень
душно
1014.3 1012.0 +23.6
03 23.06 В 6 10 км 6/6 450 м
[Cu med, cong Ci fib]
+29.0 +22.0 66 +37 +40 очень
душно
1014.1 1011.8
06 23.06 В 4 12 км 1/1 450 м
[Cu hum Ci fib]
+29.9 +21.2 60 +38 +44 очень
душно
1011.6 1009.3
09 23.06 В 4 12 км 3/3 450 м
[Cu hum Ci fib]
+27.4 +21.5 70 +35 +35 очень
душно
1012.7 1009.5
12 23.06 В 3 6000 м 3/3 450 м
[Cu hum Ci fib]
+25.8 +20.6 73 +32 +32 очень
душно
1013.3 1011.0 +30.4
15 23.06 В 3 6000 м 3/3 450 м
[Cu hum Ci fib]
+25.0 +20.7 77 +31 +31 очень
душно
1013.8 1011.6
18 23.06 В 4 6000 м 1/1 450 м
[Cu hum Ci fib]
+25.0 +21.0 78 +31 +31 очень
душно
1013.6 1011.3
00 24.06 В 4 14 км 3/3 450 м
[Cu hum Ci fib]
+27.0 +20.7 68 +34 +35 очень
душно
1015.8 1013.6 +23.7
03 24.06 В 7 14 км 1/1 450 м
[Cu hum Ci fib]
+29.8 +20.2 56 +36 +40 очень
душно
1015.3 1013.1
06 24.06 ЮВ 6 14 км 1/1 450 м
[Cu hum Ci fib]
+30.2 +21.8 61 +39 +43 очень
душно
1013.2 1010.9
09 24.06 ЮВ 4 12 км 3/1 450 м
[Cu hum Ci fib]
+27.4 +21.2 69 +35 +35 очень
душно
1013.9 1011.7
12 24.06 ЮВ 3 6000 м 3/1 450 м
[Cu hum Ci fib]
+25.5 +20.5 74 +32 +32 очень
душно
1015.3 1013.1 +31.2
15 24.06 В 6 6000 м 1/1 450 м
[Cu hum Ci fib]
+25.2 +19.4 70 +30 +30 душно 1015.5 1013.3
18 24.06 В 5 6000 м 1/1 450 м
[Cu hum Ci fib]
+24.8 +19.2 71 +30 +30 душно 1015.0 1012.8
00 25.06 В 5 12 км 1/1 450 м
[Cu hum Ci fib]
+26.3 +19.9 68 +32 +34 очень
душно
1017.1 1014.9 +24.1
03 25.06 ЮВ 7 12 км 3/3 450 м
[Cu hum Ci fib]
+28.4 +19.1 57 +34 +36 очень
душно
1016.7 1014.5
06 25.06 ЮВ 5 14 км 1/1 450 м
[Cu hum Ci fib]
+28.8 +19.6 58 +35 +40 очень
душно
1014.8 1012.6

 

Местоположение метеостанции Сабу (Индонезия): широта -10.50 долгота 121.83 высота над уровнем моря 26 м.

В архиве по умолчанию представлена погода в Сабу за последнюю неделю. Архивные данные за месяц целиком и за предыдущие месяцы, начиная с января 2011 года, Вы можете получить, выбрав интересующий диапазон дат из раскрывающегося списка и нажав кнопку "Ввод!".


*Определитесь, кто Вы:
робот инопланетянин человек

Внимание! Время в таблицах - всемирное. Для получения местного времени необходимо прибавить поправку, которая равна 8 ч.

Смотрите также архив погоды в соседних городах и на ближайших метеорологических станциях:

Погода на Роти (Индонезия) (138 км)
Погода в Аэропорту Умбу Механг Кунда (Индонезия) (188 км)
Погода в Купанге (Индонезия) (204 км)
Погода в Маумере (Индонезия) (213 км)
Погода в Рутенге (Индонезия) (257 км)
Погода в Ларантуке (Индонезия) (278 км)
Погода на Алоре (Индонезия) (393 км)
Погода в Биме (Индонезия) (406 км)
Погода на Острове Брауз (Западная Австралия, Австралия) (443 км)
Погода в Сумбава-Бесаре (Индонезия) (534 км)

Пояснения к столбцам:

Ветер - указаны скорость ветра в м/с - средняя за 10 мин, порывы в срок и между сроками (в фигурных скобках) и направление, откуда дует ветер: С - северный, СВ - северо-восточный, В - восточный, ЮВ - юго-восточный, Ю - южный, ЮЗ - юго-западный, З - западный, СЗ - северо-западный.
Видимость - горизонтальная дальность видимости в метрах или километрах. При видимости от 1 до 10 км при отсутствии осадков обычно наблюдается дымка, при ухудшении видимости до 1 км и менее - туман. В сухую погоду видимость может ухудшаться дымом, пылью или мглою.
Явления - указаны атмосферные явления, наблюдавшиеся в срок или в последний час перед сроком; фигурными скобками обозначены явления, наблюдавшиеся между сроками (за 1-3 часа до срока); квадратными скобками обозначены град или гололедные отложения с указанием их диаметра в мм.
Облачность - указаны через наклонную черту общая и нижняя облачность в баллах и высота нижней границы облаков в метрах; квадратными скобками обозначены формы облаков: Ci - перистые, Cs - перисто-слоистые, Cc - перисто-кучевые, Ac - высококучевые, As - высокослоистые, Sc - слоисто-кучевые, Ns - слоисто-дождевые, Cu - кучевые, Cb - кучево-дождевые. Подробнее классификацию облаков см. в Атласе облаков (PDF).
T - Температура воздуха - температура, измеренная на высоте 2 м над землей.
Td - Температура точки росы - температура, при понижении до которой содержащийся в воздухе водяной пар достигнет насыщения.
f - Относительная влажность воздуха - влажноcть воздуха, измеренная на высоте 2 м над землей.
Te - Эффективная температура - температура, которую ощущает одетый по сезону человек в тени. Характеристика душности погоды. При расчете учитывается влияние влажности воздуха и скорости ветра на теплоощущения человека.
Tes - Эффективная температура на солнце - температура, которую ощущает человек, с поправкой на солнечный нагрев. Характеристика знойности погоды. Зависит от высоты солнца над горизонтом, облачности и скорости ветра. Ночью, в пасмурную погоду, а также при ветре 12 м/с и более поправка равна нулю.
P - Атмосферное давление - приведенное к уровню моря атмосферное давление.
Po - Атмосферное давление - измеренное на уровне метеостанции атмосферное давление.
Tmin - Минимальная температура - минимум температуры воздуха на высоте 2 м над землей.
Tmax - Максимальная температура - максимум температуры воздуха на высоте 2 м над землей.
R - Количество осадков - Количество выпавших осадков за период времени, мм. При наведении курсора мыши на число - период времени, за который выпало указанное количество осадков.
R24 - Количество осадков - Количество выпавших осадков за 24 часа, мм.
S - Снежный покров - Высота снежного покрова, см. При наведении курсора мыши на число - состояние снежного покрова и степень покрытия местности в баллах.